Wetbulb
50.15 44.66 41.95 45.65 47.11 45.91 45.19 43.32 42.85 46.81 47.23 47.82 48.02 48.44 51.67 52.80 55.11 56.26 57.42 58.54 59.33 60.55 61.93 63.72 64.14 64.14 63.74 64.32 65.02 65.40 65.12 64.49 65.66 65.42 65.00 64.97 63.26 59.82 58.96 58.84 58.98 58.94 58.95 58.65
44.95 41.98 46.64 47.99 47.12 45.35 44.64 42.46 42.07 44.48 45.81 46.34 47.59 46.71 50.91 51.21 53.47 56.05 57.07 58.06 59.11 59.79 57.79 58.45 60.25 59.69 60.41 59.48 60.22 60.44 59.31 59.59 62.35 63.86 64.09 62.81 60.52 58.26 57.46 56.57 55.24 55.84 56.26 56.40
41.13 43.50 47.41 45.88 44.59 42.24 41.32 40.87 42.54 42.35 44.43 46.11 46.06 45.23 46.90 50.31 51.70 53.79 56.97 59.13 59.76 58.54 56.58 55.39 54.96 56.02 56.62 56.31 56.60 56.04 55.88 56.68 58.14 59.13 59.05 58.51 57.09 56.21 54.57 53.49 51.03 50.27 50.81 50.92
42.25 45.78 45.26 44.45 43.47 43.78 38.29 45.20 45.03 42.14 41.57 38.06 46.48 38.71 46.30 49.24 49.02 50.09 54.70 57.21 58.62 58.24 56.88 54.98 53.14 53.09 53.32 51.86 52.62 52.51 53.10 53.72 54.72 56.87 57.97 57.73 56.59 52.88 51.13 50.40 49.20 48.17 48.21 47.85
37.86 42.41 43.27 42.75 43.83 46.76 42.98 47.78 45.17 43.47 42.11 41.27 40.85 40.88 45.64 46.98 47.05 48.41 51.89 55.47 57.81 56.08 54.14 51.74 51.63 50.04 49.61 50.41 50.20 50.60 50.85 50.83 52.12 53.71 54.63 53.48 51.06 49.87 49.27 48.83 47.49 46.71 45.94 45.58
38.54 42.84 42.38 45.51 46.73 47.89 47.84 44.93 42.21 42.74 41.24 33.71 39.35 40.81 42.55 43.57 46.45 48.36 47.86 50.09 50.80 50.57 50.60 49.76 49.19 49.03 48.40 48.88 48.94 48.94 48.10 47.03 48.33 48.41 49.43 48.83 47.64 46.76 46.13 46.53 45.31 44.79 44.38 43.73
37.35 38.04 43.54 46.42 43.55 46.02 44.24 41.70 32.54 31.87 30.83 32.98 36.97 38.46 42.69 46.23 46.71 48.44 46.33 46.34 47.94 48.38 48.06 47.58 47.42 47.37 47.29 46.88 46.83 46.34 45.27 45.11 45.79 44.09 45.43 45.13 44.79 45.40 44.75 43.59 42.91 42.94 42.25 41.60
32.05 31.95 39.29 45.56 43.32 41.04 41.71 40.53 35.63 29.94 30.44 31.68 36.95 35.01 41.66 44.54 45.85 45.91 46.46 46.46 47.11 47.10 47.41 47.31 46.67 46.07 45.30 44.62 43.89 42.93 41.96 41.68 43.69 41.72 40.66 42.60 42.54 41.00 41.85 41.49 41.21 40.70 40.61 40.05
33.24 33.57 42.22 43.63 44.79 45.17 40.28 38.12 39.16 32.78 30.57 32.96 35.29 37.07 43.14 43.27 42.57 43.46 43.74 44.79 44.98 45.34 45.59 44.85 43.82 45.44 43.70 43.14 42.69 41.47 40.44 39.03 40.09 39.01 39.34 39.28 40.24 40.22 39.18 39.10 39.25 38.49 38.42 37.77
37.27 32.67 39.23 42.55 44.45 43.66 42.97 41.82 34.96 35.62 28.92 29.41 31.97 32.28 39.32 39.97 41.24 42.64 42.63 43.50 43.77 44.20 44.00 43.71 42.27 42.32 41.13 41.60 40.72 40.18 39.50 37.51 38.19 38.28 38.32 37.51 37.52 38.11 37.24 37.13 36.60 36.36 36.12 36.26
39.26 35.50 35.52 39.94 37.34 37.45 38.03 37.06 37.30 37.87 34.91 31.14 28.68 34.79 40.00 41.43 43.26 41.99 43.37 43.70 43.82 43.97 43.51 43.47 42.56 41.96 40.93 40.79 40.05 39.11 38.42 37.86 37.37 37.36 37.32 36.60 35.09 35.15 35.45 34.95 34.74 34.78 34.51 34.36
39.92 36.26 33.13 32.74 37.65 39.76 41.01 38.24 38.04 36.61 31.49 32.10 32.60 34.97 39.46 40.85 45.58 44.33 43.51 43.90 44.78 44.88 44.68 43.87 42.94 41.50 40.05 39.71 39.05 38.58 37.66 36.47 35.70 35.51 34.83 33.51 33.28 33.20 32.77 32.73 33.08 33.37 32.19 32.51
39.68 34.68 30.50 31.20 36.09 38.88 37.05 37.88 37.66 37.32 37.35 32.20 33.55 33.86 39.06 39.97 45.40 44.40 41.47 42.00 43.54 44.41 44.09 43.70 42.86 42.38 41.46 39.95 38.84 37.95 37.01 35.48 34.82 34.16 33.37 32.67 31.99 31.78 31.17 31.24 31.47 31.49 31.20 31.16
42.29 35.41 33.38 31.26 33.07 36.29 34.91 35.35 36.65 37.33 35.54 32.97 35.04 34.51 36.81 38.00 39.97 44.71 44.47 44.89 46.18 45.29 44.15 44.19 43.19 41.31 39.88 39.34 38.59 37.78 36.50 35.90 34.63 33.89 33.13 32.03 31.55 31.11 30.55 30.38 30.01 29.88 29.84 29.79
39.33 33.12 34.30 33.37 33.74 35.26 36.57 36.00 36.55 35.61 37.07 36.65 37.98 34.99 37.79 39.24 39.58 43.70 46.12 46.29 45.13 43.98 43.05 41.68 41.03 40.79 39.26 37.94 37.24 36.95 35.58 34.65 34.06 32.67 31.94 30.66 30.15 30.13 29.93 29.33 28.87 28.85 29.02 28.85
37.04 31.41 34.28 30.92 34.24 36.49 33.62 36.38 37.97 36.62 36.47 37.57 34.28 34.79 39.72 40.16 40.54 40.20 41.51 42.75 43.43 43.61 43.34 42.45 41.02 38.10 36.57 36.35 35.92 35.23 33.86 32.94 32.68 31.21 29.68 29.33 29.18 28.62 28.04 27.81 27.49 27.42 27.02 27.28
34.76 33.34 32.71 29.86 31.67 34.05 31.33 33.85 36.79 36.74 37.75 38.14 33.02 37.67 39.29 37.88 38.48 40.26 41.15 41.88 42.78 43.19 42.31 41.27 39.85 37.94 36.69 36.14 35.27 34.06 32.81 31.89 30.77 29.59 28.31 27.77 27.54 26.66 26.20 26.12 25.88 25.12 25.26 25.79
33.76 31.50 32.24 29.83 29.89 26.96 30.53 33.04 40.64 37.77 37.21 40.19 36.69 37.64 39.25 38.86 38.44 39.52 42.19 42.25 42.13 41.95 41.38 41.32 39.68 37.84 36.30 35.40 34.15 32.85 31.25 30.70 29.84 28.47 27.22 26.22 25.89 25.20 24.54 24.15 23.64 23.68 24.26 24.09
36.39 32.03 27.72 30.14 28.70 27.60 28.68 30.19 35.22 35.53 36.83 39.01 38.01 38.20 38.40 37.68 39.41 37.75 38.39 39.84 41.28 41.65 41.52 40.51 38.96 37.57 34.98 33.98 32.95 31.89 30.34 29.61 28.55 26.82 25.73 24.63 24.52 23.85 23.33 22.72 22.23 22.78 23.17 23.09
32.05 33.19 33.04 25.11 26.81 25.08 31.26 32.23 37.26 40.13 33.50 39.92 39.75 38.82 37.74 37.90 37.07 39.17 37.45 36.91 36.44 36.74 36.40 35.37 34.65 33.70 33.27 32.11 31.64 29.79 28.79 27.71 27.20 26.03 24.61 23.74 23.28 22.92 22.47 21.84 21.42 21.64 21.71 21.35
30.40 25.64 27.31 26.08 28.07 27.49 30.92 33.44 35.71 32.56 33.68 35.39 39.64 39.61 37.32 38.52 38.02 36.49 35.42 33.81 33.64 33.48 32.55 32.27 32.36 31.86 31.49 30.22 29.62 28.54 27.81 26.77 27.10 24.10 22.33 21.28 21.14 21.00 21.55 20.63 20.60 20.53 20.36 19.89
31.12 29.04 26.04 20.09 25.45 27.12 30.73 33.11 33.74 33.60 34.15 34.99 36.98 36.82 35.53 35.04 34.76 35.19 34.55 33.69 33.19 31.84 31.29 31.04 31.21 30.76 29.86 28.29 28.19 27.74 26.91 26.66 23.41 21.53 20.34 19.40 18.71 20.36 20.39 18.56 19.05 18.56 18.82 18.79
27.10 26.99 29.29 27.92 28.43 28.58 30.53 32.04 33.89 33.51 34.75 34.54 36.80 35.67 36.27 34.99 35.01 34.94 34.41 33.38 32.82 32.66 32.09 31.13 31.37 29.29 28.33 27.12 27.46 27.03 27.04 22.62 19.68 18.11 17.45 16.77 16.71 18.38 18.52 18.36 18.46 19.01 18.42 19.04
26.72 28.65 27.49 27.52 27.89 29.19 31.29 33.04 34.26 34.63 34.00 34.11 35.16 35.22 35.64 34.97 35.01 34.42 34.04 33.08 32.24 30.27 29.56 28.60 27.83 27.23 26.81 25.40 24.51 26.46 23.96 20.90 17.31 17.23 16.31 15.99 15.65 17.12 16.76 19.04 18.91 19.10 18.75 18.40
27.75 28.22 26.72 25.96 29.02 31.11 32.30 32.79 34.37 33.11 33.35 33.03 33.27 34.19 34.26 34.97 34.17 34.50 32.62 31.35 31.24 30.36 28.45 27.43 26.94 26.73 27.09 25.53 24.16 23.35 21.00 18.19 17.51 17.42 16.56 17.50 17.87 16.06 17.70 17.47 18.19 17.57 18.17 18.71
28.48 28.29 28.30 28.55 30.22 30.29 32.06 33.43 33.75 33.20 32.96 33.35 33.23 32.43 31.86 33.21 32.92 31.65 31.72 31.47 30.54 29.49 26.73 25.59 25.75 24.96 26.68 24.64 23.89 21.67 19.10 17.15 17.96 17.22 16.88 18.04 17.85 16.97 16.79 16.60 16.59 17.12 18.86 19.50
MSLP
1015.34 1015.50 1014.77 1014.80 1014.96 1015.43 1015.24 1015.61 1015.26 1014.96 1014.94 1014.51 1013.83 1013.29 1013.00 1013.54 1013.77 1014.12 1014.45 1015.00 1015.31 1015.88 1016.65 1017.06 1017.41 1017.91 1018.28 1018.66 1018.80 1019.00 1019.38 1019.74 1019.69 1020.05 1020.37 1020.58 1021.01 1021.81 1022.24 1022.58 1022.64 1022.55 1022.66 1022.45
1015.49 1014.47 1014.67 1014.91 1015.40 1015.64 1015.82 1015.58 1015.71 1015.72 1015.48 1015.02 1013.99 1013.36 1013.16 1013.30 1013.33 1013.55 1013.95 1014.52 1014.98 1015.82 1016.85 1017.43 1017.85 1018.27 1018.66 1018.96 1019.23 1019.45 1019.67 1019.92 1020.01 1020.08 1020.33 1020.65 1021.36 1022.16 1022.66 1023.05 1023.23 1023.26 1023.19 1023.16
1014.85 1014.63 1014.77 1014.88 1015.56 1016.14 1016.36 1016.30 1015.76 1015.95 1016.29 1015.69 1014.72 1013.45 1013.04 1013.00 1013.24 1013.52 1013.84 1014.22 1014.84 1015.78 1016.67 1017.52 1018.32 1018.75 1019.21 1019.50 1019.69 1019.88 1020.19 1020.32 1020.46 1020.58 1020.83 1021.18 1021.90 1022.46 1022.94 1023.37 1023.61 1023.94 1023.80 1023.81
1015.59 1015.06 1014.73 1014.85 1015.00 1015.65 1015.83 1015.95 1015.88 1016.20 1016.24 1015.90 1014.98 1012.99 1012.32 1012.50 1012.79 1013.41 1013.77 1014.15 1014.81 1015.92 1017.00 1017.67 1018.55 1019.25 1019.81 1020.53 1020.70 1020.72 1020.77 1020.73 1020.91 1021.01 1021.14 1021.27 1021.65 1022.34 1023.24 1023.72 1024.06 1024.36 1024.39 1024.55
1016.64 1015.67 1015.10 1014.62 1014.30 1014.71 1014.66 1015.26 1016.03 1016.44 1016.27 1016.11 1015.61 1014.63 1012.09 1012.47 1012.31 1012.99 1013.62 1014.25 1015.04 1016.24 1017.33 1018.22 1019.01 1019.85 1020.51 1021.13 1021.50 1021.56 1021.55 1021.43 1021.57 1021.60 1021.86 1022.10 1022.59 1023.36 1023.86 1024.24 1024.55 1024.61 1024.80 1025.21
1017.31 1016.57 1016.04 1014.33 1014.38 1014.44 1015.09 1015.73 1016.56 1016.62 1016.71 1016.42 1015.56 1014.64 1012.35 1012.32 1012.31 1012.92 1014.08 1014.90 1015.96 1017.08 1018.07 1019.07 1019.84 1020.38 1020.97 1021.58 1022.02 1022.33 1022.50 1022.55 1022.39 1022.23 1022.69 1023.17 1023.56 1024.20 1024.80 1024.78 1025.00 1025.16 1025.19 1025.47
1017.38 1016.58 1015.70 1014.61 1014.91 1015.17 1015.18 1015.67 1016.47 1016.97 1017.07 1016.49 1015.97 1015.38 1013.27 1013.24 1013.21 1013.13 1013.92 1015.35 1016.56 1017.82 1018.80 1019.63 1020.23 1020.85 1021.40 1021.92 1022.47 1022.89 1023.36 1023.64 1023.46 1023.14 1023.11 1024.11 1024.74 1024.57 1025.51 1025.82 1025.57 1025.58 1025.77 1026.06
1016.91 1016.78 1015.64 1014.70 1014.32 1014.28 1014.97 1014.96 1015.04 1015.27 1016.19 1016.57 1016.53 1015.16 1014.08 1014.16 1014.23 1014.21 1014.94 1016.09 1017.26 1018.35 1019.40 1020.28 1021.21 1021.76 1022.19 1022.84 1023.10 1023.33 1024.03 1024.67 1025.06 1024.66 1024.39 1024.38 1025.75 1025.87 1026.27 1026.71 1026.56 1026.55 1026.61 1026.77
1016.42 1016.22 1015.32 1015.17 1014.65 1014.42 1014.98 1014.79 1015.31 1015.36 1016.69 1016.43 1015.95 1015.47 1014.47 1014.79 1014.99 1015.13 1015.92 1016.98 1017.89 1018.80 1019.95 1020.87 1022.07 1022.89 1022.96 1023.79 1024.11 1023.96 1024.59 1025.18 1025.10 1026.66 1026.01 1025.90 1026.89 1026.97 1027.39 1027.30 1027.17 1027.19 1027.40 1027.31
1016.62 1016.35 1015.75 1015.59 1015.25 1014.99 1014.59 1014.93 1015.32 1015.29 1015.85 1015.70 1015.46 1015.06 1013.68 1014.52 1014.83 1015.47 1016.32 1017.29 1018.45 1019.52 1020.60 1021.33 1022.46 1023.75 1024.82 1023.72 1025.74 1024.56 1025.20 1026.24 1026.16 1027.49 1027.04 1027.05 1027.48 1027.93 1028.11 1027.96 1027.55 1027.71 1027.89 1027.84
1016.37 1016.90 1016.51 1016.15 1015.85 1015.37 1015.31 1015.01 1015.24 1015.28 1015.40 1014.99 1014.83 1013.67 1013.41 1013.50 1014.61 1015.57 1016.62 1017.65 1018.75 1019.89 1020.78 1022.00 1022.59 1023.53 1025.24 1024.58 1025.45 1024.67 1025.45 1026.46 1026.75 1027.76 1027.87 1027.57 1028.00 1028.23 1028.69 1028.36 1028.39 1028.24 1028.51 1028.49
1016.22 1016.81 1016.77 1016.75 1016.53 1016.15 1015.01 1015.01 1014.87 1015.05 1015.68 1015.46 1014.81 1013.97 1014.13 1014.16 1014.83 1015.98 1017.00 1018.26 1019.47 1020.28 1021.10 1021.76 1022.85 1023.77 1024.67 1025.26 1025.64 1025.39 1026.07 1026.61 1027.65 1027.73 1027.98 1028.29 1028.54 1028.69 1029.05 1028.95 1028.95 1028.86 1028.87 1028.90
1015.75 1016.74 1017.15 1017.15 1016.98 1016.17 1015.88 1015.44 1015.21 1015.10 1014.97 1015.16 1014.69 1014.36 1014.48 1014.65 1015.45 1016.35 1017.05 1018.57 1019.74 1020.40 1021.30 1022.04 1022.92 1023.63 1023.94 1024.60 1025.15 1025.65 1026.32 1026.90 1027.29 1027.85 1028.20 1028.60 1028.71 1029.12 1029.32 1029.25 1029.07 1029.09 1029.03 1028.99
1015.61 1016.42 1016.81 1016.59 1016.56 1016.38 1016.23 1015.94 1015.54 1015.21 1015.19 1014.99 1014.51 1014.14 1014.35 1014.82 1015.44 1016.19 1017.15 1017.88 1018.79 1019.90 1020.83 1021.95 1023.00 1023.82 1024.65 1025.16 1025.58 1026.14 1026.69 1027.06 1027.54 1027.82 1028.20 1028.75 1028.97 1029.12 1029.11 1029.16 1029.35 1029.43 1029.43 1029.23
1015.93 1016.00 1016.62 1016.81 1016.74 1016.48 1016.09 1016.11 1016.02 1015.79 1015.15 1014.86 1014.33 1014.19 1013.89 1014.55 1015.20 1016.14 1017.23 1018.38 1019.18 1019.97 1020.68 1021.36 1022.45 1023.34 1024.18 1025.21 1025.92 1026.49 1027.00 1027.33 1027.68 1028.09 1028.48 1028.95 1029.29 1029.43 1029.48 1029.52 1029.54 1029.59 1029.66 1029.81
1016.13 1016.32 1016.56 1017.24 1017.04 1016.94 1016.76 1016.59 1016.36 1015.82 1015.44 1014.85 1014.73 1014.33 1014.25 1015.08 1015.65 1016.59 1017.25 1018.13 1018.77 1019.43 1019.85 1020.97 1022.17 1023.23 1024.02 1024.96 1025.81 1026.35 1026.75 1027.23 1027.65 1028.18 1028.69 1029.09 1029.38 1029.47 1029.48 1029.67 1029.90 1029.91 1030.05 1030.11
1016.39 1016.31 1016.56 1017.59 1017.72 1017.47 1017.47 1016.65 1016.20 1015.85 1015.23 1014.77 1014.70 1014.15 1014.60 1015.38 1015.92 1016.44 1016.84 1017.43 1018.14 1018.90 1019.85 1020.69 1021.62 1022.60 1023.84 1024.93 1025.68 1026.24 1026.90 1027.57 1027.96 1028.37 1028.78 1029.12 1029.25 1029.38 1029.72 1030.01 1030.20 1030.24 1030.29 1030.27
1016.45 1016.60 1016.74 1017.90 1018.12 1017.84 1016.93 1016.59 1015.99 1015.63 1015.13 1014.87 1014.78 1014.88 1015.39 1015.77 1016.68 1017.25 1017.48 1017.82 1018.48 1019.21 1020.09 1020.82 1021.76 1022.88 1024.09 1025.11 1025.94 1026.61 1027.21 1027.55 1027.93 1028.26 1028.59 1029.00 1029.29 1029.75 1030.13 1030.31 1030.47 1030.51 1030.49 1030.47
1016.01 1016.30 1017.22 1017.78 1018.01 1017.57 1016.73 1016.47 1015.85 1015.42 1015.11 1014.98 1015.32 1015.91 1016.25 1016.75 1017.13 1017.99 1018.26 1018.45 1018.93 1019.68 1020.29 1021.00 1021.72 1022.85 1024.18 1025.17 1025.93 1026.55 1026.99 1027.21 1027.69 1028.27 1028.66 1029.14 1029.50 1029.90 1030.18 1030.35 1030.49 1030.77 1030.60 1030.60
1016.88 1016.34 1016.53 1018.08 1017.54 1016.87 1016.14 1016.09 1015.88 1015.65 1015.45 1014.73 1015.37 1015.98 1016.56 1017.16 1017.71 1018.25 1018.86 1019.44 1020.08 1020.67 1021.11 1021.76 1022.70 1023.62 1024.58 1025.43 1026.13 1026.58 1026.95 1027.36 1027.75 1028.36 1028.90 1029.37 1029.76 1029.99 1030.14 1030.32 1030.49 1030.68 1030.63 1030.48
1017.40 1017.60 1017.77 1017.73 1017.47 1016.94 1016.67 1016.91 1016.64 1016.78 1016.35 1015.61 1015.60 1016.17 1016.96 1017.64 1018.56 1019.06 1019.83 1020.63 1021.22 1021.69 1022.18 1022.76 1023.44 1023.95 1024.68 1025.56 1026.08 1026.52 1026.92 1027.29 1027.76 1028.61 1029.12 1029.55 1029.85 1030.05 1030.21 1030.29 1030.46 1030.34 1030.76 1030.77
1017.91 1017.98 1018.45 1018.48 1017.96 1017.71 1017.36 1017.70 1017.49 1017.33 1016.92 1016.74 1016.70 1017.17 1017.97 1018.58 1019.35 1019.94 1020.59 1021.20 1021.80 1022.30 1022.93 1023.35 1023.80 1024.40 1025.03 1025.64 1026.08 1026.66 1027.03 1027.36 1028.11 1028.86 1029.38 1029.70 1029.98 1029.94 1030.13 1030.21 1030.33 1030.84 1030.94 1030.86
1018.89 1018.48 1018.08 1018.34 1018.25 1018.08 1018.10 1018.23 1018.05 1017.99 1017.91 1017.90 1017.59 1018.01 1018.43 1019.03 1019.72 1020.47 1021.22 1021.93 1022.43 1022.92 1023.44 1023.90 1024.07 1024.63 1025.42 1025.82 1026.12 1026.45 1026.66 1027.59 1028.35 1028.95 1029.49 1029.83 1029.88 1029.88 1029.91 1030.29 1030.70 1030.72 1030.88 1030.57
1019.30 1019.01 1018.63 1018.61 1018.59 1018.67 1018.92 1018.94 1018.82 1018.64 1018.58 1018.45 1018.50 1018.72 1019.05 1019.55 1020.36 1020.98 1021.55 1022.24 1022.68 1023.09 1023.61 1024.02 1024.43 1024.80 1025.34 1025.77 1026.22 1026.49 1027.08 1027.76 1028.40 1028.63 1029.12 1029.61 1029.77 1029.82 1030.15 1030.25 1030.23 1030.21 1030.14 1030.05
1020.07 1019.69 1019.35 1019.48 1019.39 1019.32 1019.16 1019.20 1019.18 1019.26 1019.29 1019.51 1019.60 1019.46 1019.77 1020.39 1021.17 1021.68 1022.18 1022.52 1022.77 1023.22 1023.74 1024.19 1024.55 1024.84 1025.11 1025.57 1025.97 1026.45 1026.98 1027.48 1028.03 1028.37 1028.63 1029.15 1029.41 1029.61 1029.59 1029.79 1029.78 1029.71 1029.61 1029.48
1020.38 1020.06 1019.96 1019.63 1019.29 1019.45 1019.33 1019.50 1019.85 1020.13 1020.39 1020.51 1020.35 1020.73 1021.15 1021.41 1021.75 1022.03 1022.31 1022.64 1023.21 1023.58 1024.01 1024.33 1024.48 1024.67 1024.63 1025.11 1025.52 1026.00 1026.49 1027.03 1027.66 1027.93 1028.11 1028.48 1028.73 1028.96 1029.12 1029.14 1029.20 1029.33 1029.23 1029.23
Wind_Speed
7 5 10 18 4 4 9 20 11 14 5 8 13 10 9 4 5 9 10 11 12 13 8 10 9 8 8 6 8 8 7 6 6 5 4 4 5 5 6 6 8 8 8 8
5 10 12 10 9 1 1 13 19 2 3 5 8 13 11 7 7 11 12 13 14 13 11 8 8 7 6 7 6 6 6 5 4 4 4 4 6 6 7 6 8 9 10 10
8 2 8 9 9 8 9 10 8 6 7 4 6 12 8 8 7 6 10 12 13 14 13 10 8 7 7 7 7 7 6 6 5 7 7 8 9 6 5 5 6 8 10 10
7 13 9 7 16 16 14 18 6 10 12 6 11 6 14 14 11 9 10 13 14 13 11 10 10 9 7 6 6 7 7 7 5 5 6 7 5 6 4 6 6 7 10 10
2 4 18 17 18 17 7 14 9 7 8 4 7 10 10 11 16 11 13 12 12 12 12 12 11 10 9 7 7 7 9 10 9 9 8 7 9 8 6 5 7 8 9 11
6 4 7 8 4 17 14 11 5 3 3 6 10 15 12 9 13 13 8 10 10 11 11 12 11 11 11 9 9 8 10 11 11 12 12 11 11 9 6 6 6 5 6 6
2 4 5 3 7 6 3 13 2 3 3 2 1 11 10 1 4 8 14 13 12 12 12 12 13 12 11 11 11 10 10 10 10 11 13 12 9 11 8 6 5 5 5 6
7 5 6 5 8 6 12 7 4 6 6 4 2 7 5 3 2 3 10 13 14 14 12 12 11 11 12 10 11 10 9 10 9 10 10 13 9 6 6 6 6 5 5 6
3 5 2 1 2 12 5 8 2 6 3 3 4 2 7 3 6 11 15 16 15 16 14 14 11 10 11 9 9 10 11 9 12 8 9 12 7 8 7 7 6 5 5 5
3 4 1 1 2 7 6 9 4 2 8 5 4 3 7 10 12 13 16 16 16 16 16 15 11 9 3 12 5 11 12 8 10 7 7 8 8 6 5 5 7 7 6 6
7 3 1 1 1 6 6 5 2 4 2 3 5 4 1 10 14 15 15 16 18 17 16 13 11 11 4 8 5 9 9 8 9 7 6 8 6 6 5 6 6 7 6 6
8 2 3 1 5 4 2 5 4 3 5 0 1 2 1 3 13 15 16 16 16 15 15 12 11 12 9 8 8 9 9 10 7 7 7 6 5 6 5 5 6 5 6 6
9 4 3 1 3 3 1 4 3 4 2 2 3 4 3 4 12 16 18 15 14 13 11 10 10 11 11 11 9 9 8 8 8 7 7 6 6 5 5 4 5 6 6 6
10 4 2 1 3 2 5 3 2 2 3 6 3 4 8 8 13 16 17 17 17 12 13 12 10 10 9 9 9 9 9 9 8 7 6 6 5 5 4 5 5 5 5 6
5 8 4 3 4 2 7 13 7 4 4 5 5 6 3 11 13 15 15 14 16 15 14 13 13 13 12 10 9 9 8 8 7 7 6 5 5 4 5 5 5 5 5 5
1 4 5 3 3 3 2 10 10 3 4 2 2 4 3 5 10 12 15 16 17 16 16 16 14 13 12 12 11 10 9 8 7 7 6 6 5 4 5 5 4 4 5 5
4 6 4 4 3 5 3 9 8 4 5 3 3 2 6 5 8 12 15 17 17 16 15 15 15 13 11 12 10 10 9 8 7 7 6 5 4 5 4 4 4 3 4 3
8 5 2 5 2 5 2 3 11 7 6 8 3 2 3 5 5 5 5 11 10 11 12 11 10 11 10 9 9 9 9 8 7 6 6 4 4 4 3 3 2 2 1 1
4 5 6 6 3 4 2 5 9 12 10 11 9 5 7 6 4 3 3 2 4 5 6 7 9 11 11 12 10 10 8 7 6 6 5 5 5 4 4 3 3 2 1 1
5 6 4 2 4 4 2 0 1 4 5 10 11 11 11 7 5 3 3 3 4 4 4 8 9 9 11 10 9 8 7 7 7 7 6 5 4 5 5 4 3 2 0 0
4 4 4 4 3 3 2 1 0 8 2 0 6 11 9 5 3 5 6 5 3 3 6 8 9 9 8 8 7 7 7 8 5 6 5 5 5 4 4 3 2 1 2 2
4 4 3 3 2 3 4 3 6 3 2 2 5 6 7 8 7 7 7 7 7 8 8 7 8 8 8 7 7 6 8 5 6 6 5 5 4 4 4 3 2 3 3 3
2 2 2 1 2 2 1 3 2 1 0 1 6 5 8 9 5 7 6 7 6 8 7 6 7 7 7 7 7 7 4 7 7 6 5 5 5 4 3 4 5 4 4 3
1 1 3 1 1 1 2 1 1 0 2 4 7 9 5 7 8 6 6 6 6 5 6 5 5 5 6 6 6 6 5 7 7 7 7 6 6 6 5 4 4 5 5 4
2 2 3 2 0 1 2 2 3 3 4 6 4 4 6 6 4 3 4 5 5 6 4 4 7 7 8 7 8 6 7 8 8 7 6 7 6 7 6 6 5 5 4 4
3 2 1 2 2 2 3 5 3 4 3 3 5 4 3 3 6 4 5 3 3 5 3 5 7 6 8 6 7 8 8 9 8 7 6 7 7 6 6 6 5 8 8 8
Wind_Direction
179 192 215 215 181 69 167 200 201 197 167 200 214 226 236 180 195 204 186 185 181 185 159 184 174 167 162 170 178 179 176 177 173 167 166 161 120 103 84 69 57 54 43 44
213 224 208 197 141 99 106 190 206 124 337 223 221 236 238 199 215 217 193 186 186 166 170 157 157 145 157 142 145 146 139 144 162 156 137 119 122 91 88 82 66 53 53 45
219 297 177 160 180 188 248 264 170 161 169 266 233 241 217 213 219 212 211 192 190 185 169 157 149 137 135 132 130 125 114 108 105 119 118 111 112 118 103 78 68 51 54 52
284 228 210 181 200 175 214 220 191 143 160 198 222 246 209 209 202 201 197 194 185 180 170 153 144 134 117 101 99 101 101 97 96 143 143 146 135 126 97 94 84 72 55 52
38 258 198 202 207 191 220 158 164 161 180 131 202 234 204 196 212 196 193 191 181 172 165 150 135 121 105 102 91 92 93 84 80 85 99 108 102 101 105 100 92 78 67 51
270 286 263 201 140 190 137 111 51 137 169 211 194 215 218 189 202 194 178 173 161 151 140 128 122 122 111 104 95 86 86 80 81 82 77 86 95 96 97 98 87 74 69 55
289 275 287 238 143 140 133 160 153 143 191 227 322 210 247 181 215 220 181 161 149 143 140 138 136 129 123 115 109 96 90 86 86 88 92 85 87 91 89 79 81 84 64 49
187 227 207 173 204 173 182 175 184 165 180 137 311 217 217 322 335 116 139 141 138 137 134 130 124 122 117 109 102 95 86 79 62 65 79 77 72 87 87 74 71 61 59 46
222 240 309 322 301 166 158 198 97 104 29 150 200 295 269 163 162 148 143 147 143 136 131 122 114 111 111 96 99 96 91 72 75 55 74 80 78 76 79 74 72 65 54 50
152 274 41 152 271 71 212 138 103 33 153 209 189 258 228 201 182 165 156 151 143 134 128 121 100 82 40 98 77 87 90 92 83 83 90 84 75 71 72 76 71 71 64 56
146 1 41 335 254 173 153 158 86 99 308 174 160 211 157 203 180 171 159 153 148 142 134 133 120 116 147 99 106 90 100 114 114 122 106 98 94 92 80 69 66 61 61 56
205 116 283 315 290 282 311 137 158 180 178 245 348 96 81 172 173 169 152 150 151 148 147 140 147 150 156 154 148 136 144 135 129 109 101 103 96 79 72 72 71 72 72 61
161 160 195 136 128 29 184 162 128 111 79 191 174 128 136 136 173 166 149 155 165 157 156 158 161 176 165 165 158 147 136 130 128 130 125 109 93 96 97 95 77 67 70 67
158 138 251 113 102 123 164 157 141 82 140 157 239 139 186 180 181 177 172 167 165 161 160 164 173 170 165 165 161 158 152 143 143 137 128 124 119 116 105 90 81 75 68 64
209 175 181 60 11 3 158 165 159 188 188 169 203 211 162 185 183 184 179 178 175 173 173 177 179 175 168 167 166 161 152 147 144 137 129 121 122 127 113 95 83 71 63 60
114 155 143 71 356 80 350 160 154 144 184 133 4 275 136 102 133 156 171 175 189 191 185 181 173 168 168 172 171 165 157 156 153 143 137 145 145 126 98 81 78 75 65 57
130 150 143 132 60 96 268 196 181 177 237 154 187 262 145 157 184 183 181 186 189 188 178 174 176 171 170 176 170 167 159 151 150 145 145 144 132 107 95 88 83 75 70 58
147 144 44 108 106 208 27 295 200 217 242 226 307 302 133 120 102 111 173 181 174 170 170 167 161 165 164 159 162 149 158 158 155 155 153 138 120 125 127 121 115 97 96 82
202 137 101 141 106 297 182 198 177 183 223 204 218 163 119 124 122 77 68 86 122 143 150 159 158 158 163 167 162 163 163 158 160 165 163 163 167 165 168 173 166 170 173 90
114 54 88 163 132 163 15 202 220 153 279 184 176 175 157 163 156 146 134 82 94 98 125 147 142 143 153 160 162 161 166 173 186 179 175 170 176 184 187 181 175 165 119 333
83 43 135 138 134 293 247 232 163 173 261 317 177 158 151 160 30 95 108 81 84 95 128 134 146 153 151 154 160 173 174 200 182 156 159 172 183 187 182 168 182 158 227 235
123 144 131 117 137 206 144 114 195 7 346 273 126 122 106 110 116 116 120 135 139 136 138 148 149 158 162 160 163 181 204 166 151 161 174 179 186 190 180 176 170 214 231 231
105 34 115 239 87 18 25 331 338 312 294 164 123 127 133 129 134 144 152 162 164 164 162 171 169 166 181 182 188 196 197 160 162 166 179 191 190 196 181 195 206 208 212 234
83 155 71 113 15 114 200 263 301 41 86 83 106 122 134 133 151 154 162 180 184 181 189 181 179 198 201 199 204 220 165 167 164 183 186 190 201 200 204 213 209 215 211 212
36 154 137 80 215 140 225 255 160 115 109 108 82 81 89 107 146 168 186 205 211 207 194 180 199 211 221 192 211 193 181 167 188 196 182 199 208 205 205 218 215 213 217 219
188 156 211 132 135 329 140 162 137 121 113 95 85 74 80 147 172 183 217 228 226 228 195 214 222 222 229 201 214 195 183 180 188 193 193 204 206 202 208 211 209 227 238 225